1511769600.57,23170,7.25,72982.5,-12.59,-14.33,-14.19,0,*60
1511769601.84,23171,7.25,72978.5,-12.59,-14.79,-14.75,0,*65
1511769603.08,23172,7.25,72976.5,-12.59,-14.89,-14.79,0,*65
1511769604.31,23173,7.25,72980.3,-12.59,-14.89,-14.89,0,*6B
1511769605.57,23174,7.25,72974.0,-12.63,-14.75,-14.75,0,*65
1511769606.86,23175,7.25,72978.5,-12.63,-14.47,-14.47,0,*64
1511769608.1,23176,7.25,72974.5,-12.65,-14.37,-14.37,0,*61
1511769609.33,23177,7.25,72976.5,-12.63,-14.29,-14.19,0,*65
1511769610.56,23178,7.25,72978.3,-12.63,-14.15,-14.15,0,*69
1511769611.81,23179,7.25,72978.3,-12.63,-14.19,-14.05,0,*65
1511769613.07,23180,7.25,72974.8,-12.63,-14.15,-14.01,0,*6B
1511769614.35,23181,7.25,72976.8,-12.63,-14.05,-14.05,0,*6F
1511769615.59,23182,7.25,72980.3,-12.65,-14.19,-14.11,0,*62
1511769616.85,23183,7.25,72980.5,-12.63,-14.15,-14.01,0,*68
1511769618.07,23184,7.25,72980.3,-12.63,-13.93,-13.93,0,*6A
1511769619.31,23185,7.25,72976.5,-12.63,-13.93,-13.87,0,*6E
1511769620.55,23186,7.25,72978.3,-12.63,-13.93,-13.87,0,*6D
1511769621.82,23187,7.25,72978.3,-12.63,-13.87,-13.87,0,*69
1511769623.08,23188,7.25,72982.5,-12.65,-13.93,-13.83,0,*61
1511769624.31,23189,7.25,72982.3,-12.65,-13.93,-13.93,0,*61
1511769625.55,23190,7.25,72984.0,-12.63,-13.93,-13.79,0,*6B
1511769626.79,23191,7.25,72986.5,-12.63,-13.93,-13.87,0,*6B
1511769628.06,23192,7.25,72984.0,-12.65,-13.97,-13.93,0,*6F
1511769629.27,23193,7.25,72984.3,-12.63,-13.93,-13.93,0,*6C
1511769630.56,23194,7.25,72986.3,-12.63,-14.01,-14.01,0,*6B
1511769631.84,23195,7.25,72984.0,-12.63,-14.05,-14.01,0,*6E
1511769633.06,23196,7.25,72986.0,-12.63,-14.29,-14.19,0,*6A
1511769634.3,23197,7.25,72986.3,-12.65,-14.33,-14.23,0,*6F
1511769635.54,23198,7.25,72982.3,-12.65,-14.33,-14.33,0,*61
1511769636.82,23199,7.25,72976.8,-12.65,-14.37,-14.47,0,*67
1511769638.06,23200,7.25,72980.3,-12.65,-14.37,-14.33,0,*67
1511769639.3,23201,7.25,72980.8,-12.65,-14.33,-14.33,0,*62
1511769640.55,23202,7.25,72978.0,-12.65,-14.33,-14.33,0,*61
1511769641.79,23203,7.25,72976.3,-12.65,-14.33,-14.23,0,*61
1511769643.04,23204,7.25,72980.8,-12.65,-14.23,-14.23,0,*67
1511769644.28,23205,7.25,72976.5,-12.65,-14.33,-14.33,0,*66
1511769645.52,23206,7.25,72982.0,-12.65,-14.33,-14.33,0,*65
1511769646.76,23207,7.25,72982.0,-12.65,-14.33,-14.23,0,*65
1511769648.01,23208,7.25,72982.8,-12.65,-14.33,-14.23,0,*6A
1511769649.25,23209,7.25,72982.3,-12.65,-14.33,-14.33,0,*6A
1511769650.49,23210,7.25,72984.8,-12.65,-14.33,-14.23,0,*63
1511769651.71,23211,7.25,72980.8,-12.67,-14.37,-14.37,0,*61
1511769652.94,23212,7.25,72984.8,-12.67,-14.33,-14.23,0,*63
1511769654.16,23213,7.25,72982.8,-12.67,-14.37,-14.33,0,*67
1511769655.38,23214,7.25,72980.3,-12.67,-14.33,-14.33,0,*64
1511769656.59,23215,7.25,72980.0,-12.67,-14.33,-14.33,0,*65
1511769657.81,23216,7.25,72978.5,-12.67,-14.33,-14.33,0,*66
1511769659.03,23217,7.25,72986.0,-12.67,-14.33,-14.33,0,*67
1511769660.26,23218,7.25,72982.5,-12.67,-14.23,-14.23,0,*68
1511769661.5,23219,7.25,72976.3,-12.65,-14.33,-14.23,0,*6A
1511769662.72,23220,7.25,72982.5,-12.67,-14.33,-14.33,0,*63
1511769663.94,23221,7.25,72984.3,-12.67,-14.29,-14.29,0,*62
1511769665.18,23222,7.25,72984.8,-12.67,-14.61,-14.55,0,*66
1511769666.4,23223,7.25,72986.3,-12.67,-14.69,-14.65,0,*6C
1511769667.61,23224,7.25,72986.8,-12.67,-14.61,-14.61,0,*67
1511769668.85,23225,7.25,72986.0,-12.67,-14.75,-14.69,0,*6B
1511769670.09,23226,7.25,72986.5,-12.67,-14.89,-14.75,0,*66
1511769671.31,23227,7.25,72986.3,-12.67,-14.69,-14.61,0,*6C
1511769672.55,23228,7.25,72986.8,-12.67,-14.61,-14.75,0,*6E
1511769673.77,23229,7.25,72984.8,-12.67,-14.89,-14.89,0,*6A
1511769675.0,23230,7.25,72984.5,-12.69,-15.11,-15.01,0,*6D
1511769676.23,23231,7.25,72986.0,-12.73,-15.07,-15.01,0,*60
1511769677.49,23232,7.25,72986.0,-12.69,-15.01,-14.83,0,*65
1511769678.73,23233,7.25,72984.0,-12.73,-14.89,-14.79,0,*6B
1511769679.96,23234,7.25,72984.5,-12.73,-14.65,-14.55,0,*60
1511769681.17,23235,7.25,72984.8,-12.73,-14.61,-14.61,0,*62
1511769682.41,23236,7.25,72986.0,-12.73,-14.61,-14.55,0,*66
1511769683.64,23237,7.25,72986.8,-12.73,-14.65,-14.55,0,*63
1511769684.88,23238,7.25,72980.3,-12.73,-14.61,-14.55,0,*68
1511769686.11,23239,7.25,72982.0,-12.73,-14.65,-14.55,0,*6D
1511769687.35,23240,7.25,72980.5,-12.73,-14.89,-14.75,0,*63
1511769688.61,23241,7.25,72980.0,-12.75,-14.75,-14.61,0,*62
1511769689.87,23242,7.25,72976.8,-12.75,-14.61,-14.55,0,*63
1511769691.14,23243,7.25,72978.3,-12.75,-14.61,-14.47,0,*61
1511769692.37,23244,7.25,72978.8,-12.75,-14.65,-14.61,0,*66
1511769693.64,23245,7.25,72976.0,-12.73,-14.55,-14.55,0,*65
1511769694.94,23246,7.25,72972.3,-12.75,-14.47,-14.51,0,*67
1511769696.24,23247,7.25,72972.5,-12.75,-14.47,-14.47,0,*61
1511769697.53,23248,7.25,72974.0,-12.75,-14.47,-14.43,0,*6A
1511769698.79,23249,7.25,72972.3,-12.75,-14.43,-14.33,0,*68
1511769700.06,23250,7.25,72976.5,-12.75,-14.43,-14.33,0,*60
1511769701.32,23251,7.25,72982.5,-12.75,-14.43,-14.33,0,*61
1511769702.54,23252,7.25,72980.5,-12.77,-14.37,-14.37,0,*67
1511769703.75,23253,7.25,72976.5,-12.77,-14.37,-14.23,0,*63
1511769704.97,23254,7.25,72982.3,-12.77,-14.37,-14.33,0,*65
1511769706.18,23255,7.25,72980.8,-12.77,-14.37,-14.33,0,*64
1511769707.43,23256,7.25,72986.5,-12.75,-14.19,-14.19,0,*61
1511769708.64,23257,7.25,72980.3,-12.77,-14.33,-14.23,0,*63
1511769709.88,23258,7.25,72980.5,-12.75,-14.29,-14.19,0,*6C
1511769711.15,23259,7.25,72984.0,-12.75,-14.15,-14.05,0,*6F
1511769712.36,23260,7.25,72982.8,-12.77,-14.23,-14.11,0,*67
1511769713.58,23261,7.25,72982.5,-12.77,-14.23,-14.23,0,*67
1511769714.8,23262,7.25,72980.0,-12.77,-14.33,-14.33,0,*64
1511769716.04,23263,7.25,72982.3,-12.75,-14.29,-14.15,0,*68
1511769717.3,23264,7.25,72984.3,-12.75,-14.29,-14.05,0,*6E
1511769718.54,23265,7.25,72984.5,-12.77,-14.11,-14.05,0,*66
1511769719.84,23266,7.25,72984.5,-12.75,-14.05,-14.01,0,*66
1511769721.07,23267,7.25,72984.0,-12.75,-13.93,-13.93,0,*63
1511769722.34,23268,7.25,72988.5,-12.75,-14.05,-13.93,0,*64
1511769723.58,23269,7.25,72982.0,-12.77,-14.19,-14.05,0,*62
1511769724.88,23270,7.25,72982.8,-12.75,-14.05,-14.01,0,*61
1511769726.12,23271,7.25,72982.8,-12.77,-14.11,-14.05,0,*63
1511769727.39,23272,7.25,72978.8,-12.75,-14.05,-14.15,0,*66
1511769728.64,23273,7.25,72984.5,-12.75,-14.15,-14.15,0,*66
1511769729.86,23274,7.25,72980.0,-12.77,-14.19,-14.19,0,*63
1511769731.1,23275,7.25,72978.0,-12.75,-14.33,-14.33,0,*60
1511769732.4,23276,7.25,72976.5,-12.75,-14.47,-14.47,0,*63
1511769733.67,23277,7.25,72978.0,-12.77,-14.47,-14.47,0,*60
1511769734.89,23278,7.25,72980.0,-12.77,-14.33,-14.33,0,*6F
1511769736.1,23279,7.25,72976.8,-12.77,-14.23,-14.19,0,*67
1511769737.32,23280,7.25,72976.3,-12.77,-14.23,-14.19,0,*61
1511769738.54,23281,7.25,72978.0,-12.77,-14.11,-14.23,0,*68
1511769739.76,23282,7.25,72972.0,-12.77,-14.23,-14.19,0,*63
1511769740.97,23283,7.25,72974.5,-12.77,-14.19,-14.11,0,*63
1511769742.27,23284,7.25,72974.8,-12.75,-14.05,-14.05,0,*6E
1511769743.48,23285,7.25,72976.8,-12.77,-14.11,-14.19,0,*65
1511769744.7,23286,7.25,72982.3,-12.77,-14.23,-14.11,0,*6F
1511769745.94,23287,7.25,72982.0,-12.79,-14.23,-14.19,0,*68
1511769747.19,23288,7.25,72978.5,-12.79,-14.23,-14.23,0,*6E
1511769748.44,23289,7.25,72980.5,-12.79,-14.19,-14.19,0,*6F
1511769749.68,23290,7.25,72982.3,-12.79,-14.33,-14.33,0,*67
1511769750.98,23291,7.25,72976.3,-12.79,-14.47,-14.47,0,*66
1511769752.23,23292,7.25,72974.3,-12.77,-14.47,-14.37,0,*6C
1511769753.48,23293,7.25,72978.3,-12.77,-14.47,-14.37,0,*6D
1511769754.75,23294,7.25,72974.8,-12.79,-14.47,-14.33,0,*60
1511769756.03,23295,7.25,72972.0,-12.79,-14.37,-14.47,0,*65
1511769757.27,23296,7.25,72972.5,-12.79,-14.19,-14.19,0,*61
1511769758.52,23297,7.25,72976.8,-12.79,-14.19,-14.19,0,*60
1511769759.76,23298,7.25,72982.0,-12.79,-14.19,-14.11,0,*67
1511769761.01,23299,7.25,72980.3,-12.79,-14.11,-14.11,0,*6E
1511769762.25,23300,7.25,72980.3,-12.79,-14.11,-14.11,0,*6F
1511769763.46,23301,7.25,72982.5,-12.81,-14.33,-14.19,0,*61
1511769764.71,23302,7.25,72976.3,-12.79,-14.23,-14.19,0,*64
1511769765.95,23303,7.25,72978.5,-12.79,-14.23,-14.19,0,*65
1511769767.2,23304,7.25,72984.3,-12.79,-14.23,-14.19,0,*62
1511769768.42,23305,7.25,72986.0,-12.81,-14.19,-14.19,0,*6D
1511769769.66,23306,7.25,72982.5,-12.79,-14.33,-14.23,0,*68
1511769770.91,23307,7.25,72980.8,-12.81,-14.47,-14.37,0,*68
1511769772.16,23308,7.25,72982.5,-12.81,-14.47,-14.37,0,*67
1511769773.43,23309,7.25,72982.3,-12.79,-14.61,-14.47,0,*62
1511769774.64,23310,7.25,72980.8,-12.81,-14.65,-14.61,0,*6D
1511769775.88,23311,7.25,72984.3,-12.81,-14.65,-14.51,0,*6F
1511769777.15,23312,7.25,72986.3,-12.81,-14.51,-14.51,0,*6B
1511769778.39,23313,7.25,72986.3,-12.81,-14.61,-14.51,0,*69
1511769779.66,23314,7.25,72984.5,-12.81,-14.51,-14.51,0,*6D
1511769780.93,23315,7.25,72986.0,-12.81,-14.51,-14.47,0,*6B
1511769782.18,23316,7.25,72990.5,-12.81,-14.47,-14.37,0,*68
1511769783.46,23317,7.25,72990.3,-12.81,-14.51,-14.47,0,*69
1511769784.73,23318,7.25,72990.0,-12.81,-14.51,-14.47,0,*66
1511769786.01,23319,7.25,72986.3,-12.81,-14.47,-14.47,0,*60
1511769787.28,23320,7.25,72988.3,-12.85,-14.43,-14.51,0,*6D
1511769788.52,23321,7.25,72982.3,-12.85,-14.43,-14.29,0,*63
1511769789.73,23322,7.25,72986.3,-12.81,-14.33,-14.33,0,*68
1511769790.95,23323,7.25,72982.8,-12.81,-14.33,-14.23,0,*68
1511769792.17,23324,7.25,72980.0,-12.81,-14.23,-14.19,0,*67
1511769793.38,23325,7.25,72988.0,-12.81,-14.33,-14.19,0,*67
1511769794.6,23326,7.25,72988.3,-12.85,-14.37,-14.23,0,*6D
1511769795.82,23327,7.25,72984.8,-12.85,-14.29,-14.23,0,*63
1511769797.04,23328,7.25,72986.8,-12.85,-14.37,-14.37,0,*66
1511769798.26,23329,7.25,72984.5,-12.85,-14.37,-14.37,0,*67
1511769799.47,23330,7.25,72982.3,-12.85,-14.37,-14.37,0,*6F
1511769800.69,23331,7.25,72978.3,-12.85,-14.29,-14.37,0,*61
1511769801.91,23332,7.25,72982.0,-12.85,-14.37,-14.37,0,*6D
1511769803.2,23333,7.25,72984.5,-12.87,-14.43,-14.43,0,*6E
1511769804.41,23334,7.25,72982.8,-12.85,-14.37,-14.29,0,*64
1511769805.68,23335,7.25,72982.5,-12.87,-14.43,-14.29,0,*64
1511769806.9,23336,7.25,72984.3,-12.85,-14.37,-14.29,0,*66
1511769808.12,23337,7.25,72986.8,-12.85,-14.37,-14.29,0,*67
1511769809.39,23338,7.25,72988.5,-12.87,-14.43,-14.33,0,*62
1511769810.6,23339,7.25,72988.0,-12.85,-14.37,-14.29,0,*69
1511769811.82,23340,7.25,72984.5,-12.85,-14.37,-14.29,0,*67
1511769813.1,23341,7.25,72990.0,-12.87,-14.47,-14.33,0,*68
1511769814.37,23342,7.25,72986.0,-12.87,-14.43,-14.33,0,*6F
1511769815.59,23343,7.25,72990.8,-12.85,-14.37,-14.29,0,*64
1511769816.8,23344,7.25,72986.0,-12.85,-14.37,-14.37,0,*6C
1511769818.09,23345,7.25,72992.3,-12.87,-14.43,-14.43,0,*6F
1511769819.31,23346,7.25,72992.8,-12.85,-14.37,-14.23,0,*6B
1511769820.58,23347,7.25,72990.8,-12.87,-14.43,-14.29,0,*61
1511769821.88,23348,7.25,72990.8,-12.87,-14.55,-14.47,0,*61
1511769823.15,23349,7.25,72992.3,-12.85,-14.51,-14.51,0,*61
1511769824.41,23350,7.25,72990.3,-12.87,-14.75,-14.69,0,*66
1511769825.67,23351,7.25,72986.3,-12.87,-15.01,-14.89,0,*6B
1511769826.94,23352,7.25,72990.3,-12.87,-14.75,-14.61,0,*6C
1511769828.18,23353,7.25,72984.3,-12.87,-14.69,-14.61,0,*60
1511769829.42,23354,7.25,72978.3,-12.87,-14.61,-14.61,0,*6F
1511769830.66,23355,7.25,72980.3,-12.87,-14.61,-14.61,0,*6E
1511769831.93,23356,7.25,72982.8,-12.89,-14.55,-14.55,0,*63
1511769833.16,23357,7.25,72986.0,-12.89,-14.69,-14.55,0,*6D
1511769834.46,23358,7.25,72982.3,-12.91,-14.83,-14.79,0,*61
1511769835.72,23359,7.25,72984.3,-12.91,-15.07,-14.93,0,*69
1511769836.94,23360,7.25,72980.8,-12.89,-15.29,-15.15,0,*69
1511769838.21,23361,7.25,72980.5,-12.91,-15.25,-15.21,0,*6A
1511769839.47,23362,7.25,72984.3,-12.91,-15.21,-15.07,0,*69
1511769840.73,23363,7.25,72982.5,-12.91,-15.07,-14.97,0,*64
1511769841.97,23364,7.25,72974.3,-12.89,-15.15,-15.01,0,*67
1511769843.21,23365,7.25,72976.8,-12.91,-15.11,-15.07,0,*6D
1511769844.5,23366,7.25,72978.0,-12.91,-14.93,-14.79,0,*6D
1511769845.79,23367,7.25,72990.0,-12.91,-14.79,-14.75,0,*64
1511769847.03,23368,7.25,72988.5,-12.91,-14.65,-14.65,0,*67
1511769848.32,23369,7.25,72984.5,-12.91,-14.75,-14.79,0,*6A
1511769849.56,23370,7.25,72988.3,-12.89,-14.79,-14.65,0,*6A
1511769850.85,23371,7.25,72988.3,-12.91,-14.93,-14.83,0,*6E
1511769852.12,23372,7.25,72988.5,-12.89,-14.79,-14.75,0,*69
1511769853.38,23373,7.25,72984.8,-12.91,-14.75,-14.65,0,*6C
1511769854.63,23374,7.25,72990.5,-12.91,-14.65,-14.65,0,*6A
1511769855.91,23375,7.25,72990.5,-12.91,-14.79,-14.75,0,*67
1511769857.2,23376,7.25,72982.8,-12.91,-14.79,-14.75,0,*64
1511769858.49,23377,7.25,72984.0,-12.91,-14.79,-14.75,0,*65
1511769859.73,23378,7.25,72982.5,-12.91,-14.65,-14.65,0,*66
1511769860.97,23379,7.25,72984.5,-12.91,-14.65,-14.65,0,*67
1511769862.21,23380,7.25,72984.8,-12.91,-14.65,-14.61,0,*65
1511769863.46,23381,7.25,72982.3,-12.91,-14.65,-14.65,0,*60
1511769864.7,23382,7.25,72986.0,-12.91,-14.65,-14.65,0,*63
1511769865.94,23383,7.25,72986.5,-12.91,-14.61,-14.61,0,*62
1511769867.24,23384,7.25,72984.8,-12.91,-14.51,-14.51,0,*65
1511769868.54,23385,7.25,72982.0,-12.91,-14.51,-14.51,0,*64
1511769869.84,23386,7.25,72982.5,-12.91,-14.51,-14.47,0,*60
1511769871.11,23387,7.25,72980.0,-12.91,-14.51,-14.37,0,*66
1511769872.39,23388,7.25,72976.5,-12.91,-14.47,-14.37,0,*6E
1511769873.63,23389,7.25,72980.0,-12.91,-14.37,-14.37,0,*68
1511769874.91,23390,7.25,72978.8,-12.91,-14.47,-14.37,0,*67
1511769876.18,23391,7.25,72978.0,-12.91,-14.47,-14.23,0,*63
1511769877.42,23392,7.25,72980.5,-12.91,-14.33,-14.33,0,*62
1511769878.7,23393,7.25,72980.3,-12.91,-14.47,-14.33,0,*60
1511769880.0,23394,7.25,72980.8,-12.91,-14.83,-14.93,0,*65
1511769881.24,23395,7.25,72984.3,-12.95,-15.11,-15.11,0,*61
1511769882.54,23396,7.25,72980.0,-12.95,-14.83,-14.83,0,*62
1511769883.82,23397,7.25,72978.0,-12.95,-14.89,-14.83,0,*69
1511769885.11,23398,7.25,72982.3,-12.91,-14.75,-14.75,0,*68
1511769886.35,23399,7.25,72978.3,-12.91,-14.65,-14.65,0,*69
1511769887.59,23400,7.25,72982.3,-12.91,-14.61,-14.61,0,*6E
1511769888.89,23401,7.25,72980.0,-12.91,-14.51,-14.47,0,*68
1511769890.16,23402,7.25,72976.8,-12.91,-14.61,-14.51,0,*6F
1511769891.43,23403,7.25,72972.3,-12.91,-14.61,-14.47,0,*69
1511769892.7,23404,7.25,72968.3,-12.91,-14.47,-14.37,0,*6D
1511769893.98,23405,7.25,72976.0,-12.91,-14.37,-14.47,0,*6C
1511769895.23,23406,7.25,72976.8,-12.91,-14.37,-14.23,0,*6D
1511769896.47,23407,7.25,72978.8,-12.91,-14.23,-14.11,0,*68
1511769897.74,23408,7.25,72974.0,-12.91,-14.11,-14.05,0,*63
1511769899.04,23409,7.25,72974.5,-12.91,-14.05,-13.83,0,*6E
1511769900.3,23410,7.25,72974.0,-12.91,-13.93,-13.83,0,*6E
1511769901.58,23411,7.25,72978.5,-12.91,-13.79,-13.83,0,*6B
1511769902.87,23412,7.25,72976.0,-12.91,-13.79,-13.83,0,*68
1511769904.17,23413,7.25,72976.5,-12.91,-13.83,-13.83,0,*6C
1511769905.45,23414,7.25,72984.8,-12.91,-13.79,-13.83,0,*6E
1511769906.69,23415,7.25,72982.0,-12.89,-13.73,-13.79,0,*69
1511769907.95,23416,7.25,72982.5,-12.89,-13.83,-13.79,0,*65
1511769909.21,23417,7.25,72982.5,-12.89,-13.79,-13.79,0,*61
1511769910.44,23418,7.25,72984.0,-12.89,-13.79,-13.73,0,*64
1511769911.68,23419,7.25,72980.5,-12.89,-13.87,-13.73,0,*64
1511769912.92,23420,7.25,72984.0,-12.89,-13.87,-13.73,0,*6E
1511769914.18,23421,7.25,72986.8,-12.89,-13.79,-13.87,0,*65
1511769915.43,23422,7.25,72990.8,-12.89,-13.87,-13.79,0,*66
1511769916.67,23423,7.25,72988.5,-12.89,-13.93,-13.87,0,*63
1511769917.91,23424,7.25,72984.5,-12.89,-14.01,-13.93,0,*6D
1511769919.15,23425,7.25,72986.0,-12.89,-14.01,-13.93,0,*6C
1511769920.45,23426,7.25,72986.3,-12.87,-14.01,-14.01,0,*6D
1511769921.73,23427,7.25,72982.5,-12.87,-14.15,-14.05,0,*6D
1511769923.03,23428,7.25,72976.5,-12.87,-14.05,-14.01,0,*67
1511769924.28,23429,7.25,72982.3,-12.89,-14.15,-14.05,0,*6D
1511769925.51,23430,7.25,72982.8,-12.89,-14.15,-14.15,0,*64
1511769926.78,23431,7.25,72982.5,-12.89,-14.05,-14.01,0,*61
1511769928.05,23432,7.25,72982.5,-12.85,-13.83,-13.87,0,*6E
1511769929.34,23433,7.25,72976.0,-12.87,-13.79,-13.87,0,*68
1511769930.62,23434,7.25,72982.0,-12.87,-13.79,-13.79,0,*6E
1511769931.88,23435,7.25,72986.5,-12.87,-13.73,-13.79,0,*65
1511769933.09,23436,7.25,72986.5,-12.85,-13.73,-13.73,0,*6E
1511769934.36,23437,7.25,72972.8,-12.87,-13.79,-13.73,0,*67
1511769935.59,23438,7.25,72970.0,-12.87,-13.69,-13.69,0,*62
1511769936.86,23439,7.25,72970.5,-12.87,-13.69,-13.61,0,*6B
1511769938.1,23440,7.25,72958.5,-12.87,-13.69,-13.69,0,*6D
1511769939.37,23441,7.25,72968.3,-12.87,-13.73,-13.61,0,*6F
1511769940.58,23442,7.25,72980.5,-12.85,-13.55,-13.55,0,*6D
1511769941.8,23443,7.25,72986.5,-12.85,-13.55,-13.65,0,*6F
1511769943.08,23444,7.25,72984.8,-12.87,-13.87,-13.79,0,*68
1511769944.3,23445,7.25,72970.5,-12.85,-13.73,-13.73,0,*6A
1511769945.51,23446,7.25,72972.0,-12.85,-13.73,-13.73,0,*69
1511769946.72,23447,7.25,72978.8,-12.85,-13.73,-13.73,0,*68
1511769947.94,23448,7.25,72978.3,-12.85,-13.73,-13.73,0,*67
1511769949.22,23449,7.25,72976.0,-12.87,-13.87,-13.79,0,*65
1511769950.51,23450,7.25,72980.3,-12.87,-13.79,-13.87,0,*6D
1511769951.75,23451,7.25,72984.8,-12.85,-13.83,-13.73,0,*60
1511769952.97,23452,7.25,72984.8,-12.85,-13.73,-13.73,0,*6C
1511769954.21,23453,7.25,72984.0,-12.85,-13.83,-13.73,0,*62
1511769955.45,23454,7.25,72984.0,-12.85,-13.83,-13.73,0,*65
1511769956.7,23455,7.25,72986.3,-12.85,-14.11,-14.01,0,*6A
1511769958.01,23456,7.25,72982.8,-12.87,-14.47,-14.47,0,*6A
1511769959.25,23457,7.25,72980.0,-12.87,-14.61,-14.61,0,*6B
1511769960.54,23458,7.25,72978.3,-12.87,-14.43,-14.43,0,*64
1511769961.78,23459,7.25,72976.0,-12.87,-14.29,-14.19,0,*66
1511769963.05,23460,7.25,72970.5,-12.87,-14.19,-14.05,0,*62
1511769964.32,23461,7.25,72968.0,-12.85,-14.05,-14.05,0,*6C
1511769965.6,23462,7.25,72978.8,-12.85,-13.97,-13.97,0,*6F
1511769966.88,23463,7.25,72976.0,-12.85,-14.01,-14.01,0,*6E
1511769968.17,23464,7.25,72974.0,-12.87,-14.05,-14.05,0,*6B
1511769969.44,23465,7.25,72970.3,-12.85,-13.87,-13.87,0,*68
1511769970.7,23466,7.25,72972.5,-12.85,-13.87,-13.83,0,*6F
1511769971.97,23467,7.25,72974.8,-12.85,-13.97,-13.87,0,*6B
1511769973.23,23468,7.25,72968.5,-12.85,-13.87,-13.87,0,*65
1511769974.5,23469,7.25,72966.5,-12.85,-14.01,-13.87,0,*6D
1511769975.76,23470,7.25,72970.0,-12.85,-13.83,-13.87,0,*68
1511769977.02,23471,7.25,72980.0,-12.81,-13.79,-13.79,0,*69
1511769978.23,23472,7.25,72982.8,-12.85,-13.73,-13.73,0,*6E
1511769979.48,23473,7.25,72978.5,-12.85,-13.83,-13.73,0,*60
1511769980.69,23474,7.25,72976.8,-12.81,-13.69,-13.69,0,*6C
1511769981.9,23475,7.25,72972.8,-12.85,-13.73,-13.73,0,*69
1511769983.11,23476,7.25,72974.3,-12.85,-13.73,-13.73,0,*6A
1511769984.32,23477,7.25,72976.8,-12.85,-13.69,-13.69,0,*6B
1511769985.53,23478,7.25,72974.5,-12.85,-13.69,-13.69,0,*64
1511769986.74,23479,7.25,72976.5,-12.85,-13.69,-13.69,0,*65
1511769987.95,23480,7.25,72976.8,-12.85,-13.69,-13.69,0,*63
1511769989.19,23481,7.25,72978.0,-12.81,-13.61,-13.65,0,*62
1511769990.4,23482,7.25,72978.8,-12.81,-13.65,-13.65,0,*65
1511769991.64,23483,7.25,72978.8,-12.81,-13.65,-13.61,0,*60
1511769992.88,23484,7.25,72976.3,-12.81,-13.61,-13.65,0,*67
1511769994.09,23485,7.25,72976.5,-12.81,-13.65,-13.65,0,*62
1511769995.3,23486,7.25,72978.5,-12.81,-13.65,-13.65,0,*61
1511769996.51,23487,7.25,72982.0,-12.81,-13.65,-13.69,0,*6C
1511769997.75,23488,7.25,72976.5,-12.85,-13.73,-13.83,0,*64
1511769998.96,23489,7.25,72980.0,-12.85,-13.73,-13.73,0,*6A
1511770000.22,23490,7.25,72976.0,-12.81,-13.79,-13.79,0,*66
1511770001.48,23491,7.25,72976.0,-12.81,-13.83,-13.79,0,*62
1511770002.69,23492,7.25,72972.5,-12.81,-13.69,-13.69,0,*64
1511770003.97,23493,7.25,72976.8,-12.79,-13.79,-13.79,0,*62
1511770005.2,23494,7.25,72972.0,-12.81,-13.93,-13.83,0,*63
1511770006.43,23495,7.25,72970.5,-12.85,-14.23,-14.15,0,*62
1511770007.65,23496,7.25,72970.3,-12.85,-14.23,-14.15,0,*61
1511770008.93,23497,7.25,72966.8,-12.85,-14.01,-14.01,0,*65
1511770010.19,23498,7.25,72970.8,-12.85,-13.87,-13.83,0,*6E
1511770011.43,23499,7.25,72974.8,-12.85,-13.87,-13.73,0,*60
1511770012.7,23500,7.25,72980.8,-12.85,-13.83,-13.83,0,*6A
1511770013.94,23501,7.25,72976.8,-12.85,-13.83,-13.73,0,*64
1511770015.21,23502,7.25,72970.8,-12.85,-13.83,-13.83,0,*68
1511770016.42,23503,7.25,72968.3,-12.85,-13.73,-13.73,0,*69
1511770017.66,23504,7.25,72974.3,-12.85,-13.87,-13.73,0,*65
1511770018.92,23505,7.25,72972.8,-12.81,-13.79,-13.83,0,*6E
1511770020.17,23506,7.25,72978.3,-12.81,-13.79,-13.79,0,*68
1511770021.43,23507,7.25,72978.5,-12.81,-13.79,-13.79,0,*69
1511770022.67,23508,7.25,72976.8,-12.81,-13.83,-13.69,0,*62
1511770023.93,23509,7.25,72976.5,-12.79,-13.93,-13.79,0,*64
1511770025.2,23510,7.25,72978.8,-12.81,-13.83,-13.83,0,*6F
1511770026.46,23511,7.25,72972.3,-12.85,-13.87,-13.87,0,*6A
1511770027.72,23512,7.25,72968.3,-12.85,-13.87,-13.87,0,*69
1511770028.98,23513,7.25,72968.5,-12.85,-13.87,-13.83,0,*6C
1511770030.19,23514,7.25,72974.0,-12.81,-13.69,-13.69,0,*6B
1511770031.4,23515,7.25,72982.5,-12.81,-13.69,-13.65,0,*66
1511770032.61,23516,7.25,72978.5,-12.85,-13.73,-13.69,0,*66
1511770033.9,23517,7.25,72976.5,-12.79,-13.79,-13.79,0,*6F
1511770035.13,23518,7.25,72978.8,-12.81,-13.79,-13.69,0,*66
1511770036.36,23519,7.25,72982.3,-12.81,-13.79,-13.69,0,*67
1511770037.6,23520,7.25,72980.3,-12.81,-13.79,-13.69,0,*6D
1511770038.85,23521,7.25,72978.8,-12.81,-13.79,-13.79,0,*6D
1511770040.09,23522,7.25,72980.3,-12.81,-13.79,-13.69,0,*6F
1511770041.37,23523,7.25,72980.5,-12.79,-13.79,-13.79,0,*68
1511770042.58,23524,7.25,72982.5,-12.81,-13.69,-13.69,0,*68
1511770043.84,23525,7.25,72980.3,-12.81,-13.79,-13.79,0,*69
1511770045.07,23526,7.25,72980.3,-12.81,-13.69,-13.79,0,*6B
1511770046.3,23527,7.25,72982.0,-12.81,-13.69,-13.79,0,*6A
1511770047.53,23528,7.25,72984.3,-12.81,-13.79,-13.69,0,*65
1511770048.74,23529,7.25,72980.0,-12.81,-13.69,-13.69,0,*65
1511770049.95,23530,7.25,72982.0,-12.81,-13.65,-13.65,0,*6D
1511770051.19,23531,7.25,72984.0,-12.81,-13.61,-13.65,0,*68
1511770052.4,23532,7.25,72984.3,-12.81,-13.65,-13.65,0,*6F
1511770053.64,23533,7.25,72984.8,-12.79,-13.65,-13.65,0,*69
1511770054.91,23534,7.25,72980.0,-12.81,-13.61,-13.61,0,*69
1511770056.14,23535,7.25,72984.0,-12.81,-13.65,-13.61,0,*6C
1511770057.38,23536,7.25,72984.3,-12.81,-13.61,-13.65,0,*6F
1511770058.62,23537,7.25,72990.0,-12.81,-13.65,-13.61,0,*6E
1511770059.83,23538,7.25,72992.3,-12.81,-13.65,-13.65,0,*65
1511770061.04,23539,7.25,72988.5,-12.81,-13.65,-13.65,0,*64
1511770062.27,23540,7.25,72988.8,-12.81,-13.93,-13.79,0,*6E
1511770063.48,23541,7.25,72988.3,-12.81,-13.93,-13.93,0,*6B
1511770064.71,23542,7.25,72990.3,-12.81,-13.93,-13.83,0,*69
1511770065.95,23543,7.25,72990.5,-12.79,-13.93,-13.93,0,*6E
1511770067.18,23544,7.25,72990.8,-12.81,-13.93,-13.83,0,*6F
1511770068.39,23545,7.25,72990.0,-12.81,-13.93,-13.93,0,*6F
1511770069.62,23546,7.25,72988.3,-12.81,-13.93,-13.83,0,*6D
1511770070.86,23547,7.25,72992.0,-12.81,-13.93,-13.83,0,*6C
1511770072.12,23548,7.25,72996.0,-12.81,-13.97,-13.83,0,*67
1511770073.4,23549,7.19,72992.3,-12.81,-13.97,-13.97,0,*63
1511770074.67,23550,7.25,72994.3,-12.81,-14.05,-14.05,0,*6B
1511770075.89,23551,7.25,72988.5,-12.81,-14.11,-14.19,0,*62
1511770077.14,23552,7.19,72988.0,-12.81,-14.23,-14.05,0,*6D
1511770078.35,23553,7.25,72990.5,-12.81,-14.11,-14.11,0,*68
1511770079.57,23554,7.25,72986.5,-12.85,-14.23,-14.15,0,*6E
1511770080.79,23555,7.19,72986.5,-12.81,-14.33,-14.33,0,*6E
1511770082.01,23556,7.25,72984.8,-12.81,-14.23,-14.23,0,*6D
1511770083.23,23557,7.25,72984.0,-12.81,-14.19,-14.11,0,*64
1511770084.45,23558,7.25,72986.5,-12.85,-14.23,-14.23,0,*67
1511770085.67,23559,7.25,72984.5,-12.85,-14.23,-14.23,0,*66
1511770086.89,23560,7.25,72984.0,-12.85,-14.29,-14.23,0,*66
1511770088.13,23561,7.25,72988.8,-12.87,-14.29,-14.29,0,*6F
1511770089.35,23562,7.25,72986.0,-12.85,-14.29,-14.15,0,*61
1511770090.59,23563,7.25,72984.0,-12.87,-14.33,-14.29,0,*66
1511770091.82,23564,7.25,72984.8,-12.85,-14.23,-14.15,0,*6D
1511770093.04,23565,7.19,72982.0,-12.85,-14.19,-14.29,0,*6A
1511770094.26,23566,7.25,72986.0,-12.85,-14.15,-14.15,0,*6A
1511770095.51,23567,7.25,72986.5,-12.87,-14.19,-14.29,0,*6A
1511770096.74,23568,7.25,72984.0,-12.85,-14.23,-14.15,0,*61
1511770097.96,23569,7.25,72982.5,-12.85,-14.23,-14.23,0,*65